Campo, CA

2:52 PM PDT on July 20, 2019 (GMT -0700)
Campo

Weather History for KCZZ - May, 2019

Change the Weather History Date:

Saturday, May 4, 2019

  Actual Average Record
Temperature  
Mean Temperature 58 °F 59 °F  
Max Temperature 78 °F 77 °F 96 °F (1989)
Min Temperature 38 °F 41 °F 29 °F (1973)
Degree Days  
Heating Degree Days 7 7  
Month to date heating degree days 36 28  
Since 1 July heating degree days 2754 2796  
Cooling Degree Days 0 0  
Month to date cooling degree days 0 0  
Year to date cooling degree days 2 3  
Growing Degree Days 8 (Base 50)    
Moisture  
Dew Point 42 °F    
Average Humidity 59    
Maximum Humidity 92    
Minimum Humidity 25    
Precipitation  
Precipitation 0.00 in 0.02 in 0.45 in (1960)
Month to date precipitation 0.00 0.06  
Year to date precipitation 11.19 9.92  
Sea Level Pressure  
Sea Level Pressure 29.82 in    
Wind  
Wind Speed 8 mph (WSW)    
Max Wind Speed 21 mph    
Max Gust Speed 24 mph    
T = Trace of Precipitation, MM = Missing Value Source: NWS Daily Summary

Daily Weather History Graph

Daily Weather History Graph

Search for Another Location

Airport or City:

Astronomy

May. 04, 2019 Rise Set
Actual Time 5:56 AM PDT 7:29 PM PDT
Civil Twilight 5:29 AM PDT 7:55 PM PDT
Nautical Twilight 4:58 AM PDT 8:27 PM PDT
Astronomical Twilight 4:25 AM PDT 9:00 PM PDT
Moon 6:04 AM PDT (5/4) 7:27 PM PDT (5/4)
Length of Visible Light 14h 26m
Length of Day
13h 33m
Waning Crescent, 0% of the Moon is Illuminated
May 4
Waning Crescent
May 4
New
May 11
First Quarter
May 18
Full
May 26
Last Quarter

Hourly Weather History & Observations

Time (PDT) Temp. Windchill Dew Point Humidity Pressure Visibility Wind Dir Wind Speed Gust Speed Precip Events Conditions
12:52 AM 44.1 °F 40.8 °F 39.9 °F 85% 29.87 in - NE 5.8 mph - N/A   Unknown
1:52 AM 44.1 °F 40.8 °F 39.9 °F 85% 29.86 in - NE 5.8 mph - N/A   Unknown
2:52 AM 42.1 °F 37.7 °F 37.9 °F 85% 29.85 in - ENE 6.9 mph - N/A   Unknown
3:52 AM 42.1 °F 40.2 °F 39.0 °F 89% 29.84 in - NE 3.5 mph - N/A   Unknown
4:52 AM 39.9 °F 35.8 °F 37.0 °F 89% 29.84 in - NE 5.8 mph - N/A   Unknown
5:52 AM 39.0 °F 34.8 °F 36.0 °F 89% 29.85 in - NE 5.8 mph - N/A   Unknown
6:52 AM 42.1 °F 38.4 °F 37.9 °F 85% 29.85 in - NE 5.8 mph - N/A   Unknown
7:52 AM 53.1 °F - 44.1 °F 71% 29.85 in - Calm Calm - N/A   Unknown
8:52 AM 62.1 °F - 45.0 °F 53% 29.84 in - Variable 3.5 mph - N/A   Unknown
9:52 AM 69.1 °F - 41.0 °F 36% 29.84 in - SW 9.2 mph - N/A   Unknown
10:52 AM 71.1 °F - 42.1 °F 35% 29.84 in - SSW 13.8 mph - N/A   Unknown
11:52 AM 72.0 °F - 44.1 °F 37% 29.83 in - SSW 16.1 mph - N/A   Unknown
12:52 PM 73.0 °F - 43.0 °F 34% 29.82 in - SW 13.8 mph - N/A   Unknown
1:52 PM 75.9 °F - 37.9 °F 25% 29.81 in - West 9.2 mph - N/A   Unknown
2:52 PM 78.1 °F - 41.0 °F 27% 29.80 in - West 9.2 mph 19.6 mph N/A   Unknown
3:52 PM 75.9 °F - 42.1 °F 30% 29.78 in - West 11.5 mph - N/A   Unknown
4:52 PM 73.9 °F - 43.0 °F 33% 29.78 in - West 13.8 mph 20.7 mph N/A   Unknown
5:52 PM 71.1 °F - 44.1 °F 38% 29.79 in - WSW 10.4 mph - N/A   Unknown
6:52 PM 66.0 °F - 46.0 °F 48% 29.79 in - SW 9.2 mph - N/A   Unknown
7:52 PM 59.0 °F - 46.9 °F 64% 29.79 in - SW 10.4 mph - N/A   Unknown
8:52 PM 55.9 °F - 46.9 °F 72% 29.80 in - SSW 5.8 mph - N/A   Unknown
9:52 PM 52.0 °F - 45.0 °F 77% 29.80 in - SW 4.6 mph - N/A   Unknown
10:52 PM 48.0 °F - 42.1 °F 80% 29.82 in - NNE 4.6 mph - N/A   Unknown
11:52 PM 46.0 °F 43.1 °F 42.1 °F 86% 29.82 in - NE 5.8 mph - N/A   Unknown